Location: Titusville
(28.6120°N, 80.8080°W)
Time: 20:24:29
(UTC-04:00)

Tiangong 2 - Visible Passes

Search period start: 17 October 2017 00:00
Search period end: 27 October 2017 00:00
Orbit: 388 x 392 km, 42.8° (Epoch: 17 October)

Date Brightness Start Highest point End Pass type
(mag) Time Alt. Az. Time Alt. Az. Time Alt. Az.
17 Oct 3.7 06:52:16 10° NNW 06:54:14 15° NNE 06:56:11 10° ENE visible
18 Oct 4.0 05:55:27 10° N 05:56:08 11° NNE 05:56:51 10° NNE visible
19 Oct 3.0 06:32:52 10° NNW 06:35:36 25° NNE 06:38:19 10° E visible
20 Oct 3.8 05:37:58 16° NNE 05:37:58 16° NNE 05:39:39 10° ENE visible
21 Oct 1.7 06:15:31 30° NNW 06:16:47 51° NNE 06:19:55 10° ESE visible
22 Oct 4.2 05:20:47 15° E 05:20:47 15° E 05:21:37 10° E visible
22 Oct 2.3 06:53:08 12° W 06:55:38 27° SW 06:58:25 10° SSE visible
23 Oct 1.8 05:58:29 47° SSE 05:58:29 47° SSE 06:00:58 10° SE visible
24 Oct 3.4 06:36:15 12° SW 06:36:27 12° SW 06:37:43 10° SSW visible
25 Oct 4.1 20:30:51 10° SSW 20:30:51 10° SSW 20:30:51 10° SSW visible
26 Oct 3.2 19:34:12 10° SSE 19:35:47 13° SE 19:36:11 13° SE visible
